{"data":{"norad_id":61045,"intl_designator":"2024-163A","name":"SPACEMOBILE-003","alt_names":[],"object_type":"PAYLOAD","status":"ACTIVE","operator":null,"country":"US","launch_date":"2024-09-12","launch_site_code":"AFETR","launch_vehicle":null,"mission":null,"orbit_class":"UNKNOWN","rcs_meters":null,"size_class":null,"mass_kg":null,"dimensions":null,"purposes":[],"wikipedia_slug":null,"has_3d_model":false,"image_url":null,"decayed_at":null,"tle_current":{"epoch":"2026-09-22T06:59:26.373408Z","epoch_age_seconds":136982,"freshness":"FRESH","line1":"1 61045U 24163A   26265.29127747  .00001222  00000+0  70117-4 0  9998","line2":"2 61045  52.9691 222.9722 0006980  53.4093 306.7542 15.20429875112546","mean_motion":15.20429875,"eccentricity":0.000698,"inclination_deg":52.9691,"raan_deg":222.9722,"arg_perigee_deg":53.4093,"mean_anomaly_deg":306.7542,"bstar":7.0117e-5,"rev_number":11254,"period_min":94.710056917291,"perigee_km":499.73889229969,"apogee_km":509.34711358379,"semimajor_km":6882.6800029417,"source":"CELESTRAK","updated_at":"2026-09-23T09:00:20.801644Z"}}}